Regional Weather Roundup
Issued by NWS

Home | Current Version | Previous Version | Graphics & Text | Print | Product List | Glossary On
Versions: 1 2 3 4 5 6 7 8 9 10 11 12 13 14 15 16 17 18 19 20 21 22 23 24 25 26 27 28 29 30 31 32 33 34 35 36 37 38 39 40 41 42 43 44 45 46 47 48 49 50
000
ASUS43 KLMK 271610
RWRKY
KENTUCKY REGIONAL WEATHER ROUNDUP
NATIONAL WEATHER SERVICE LOUISVILLE KY
1200 PM EDT THU AUG 27 2015

NOTE "FAIR" INDICATES FEW OR NO CLOUDS BELOW 12,000 FEET
WITH NO SIGNIFICANT WEATHER AND/OR OBSTRUCTIONS TO VISIBILITY.

KYZ001>023-026-027-061>063-070>075-271700-
WESTERN AND SOUTH CENTRAL KENTUCKY

CITY           SKY/WX    TMP DP  RH WIND       PRES   REMARKS
PADUCAH        SUNNY     78  60  53 E8        30.13F
HENDERSON      SUNNY     73  59  60 CALM      30.14F
OWENSBORO      SUNNY     77  58  51 VRB5      30.16F
HOPKINSVILLE   MOSUNNY   77  56  48 NE9       30.15F
BOWLING GREEN  SUNNY     78  55  44 NE15      30.17S
GLASGOW        SUNNY     74  55  50 NE9       30.18R
$$

KYZ024-025-028>034-038-045-046-053-271700-
NORTH CENTRAL KENTUCKY

CITY           SKY/WX    TMP DP  RH WIND       PRES   REMARKS
LOUISVILLE/SDF MOSUNNY   76  55  48 SE5       30.17F
LOUISVILLE/LOU SUNNY     75  54  47 N6        30.19S
FORT KNOX      SUNNY     74  55  52 NE5       30.17F
$$

KYZ035>037-039>044-047>052-055>060-089>105-271700-
NORTHEAST KENTUCKY

CITY           SKY/WX    TMP DP  RH WIND       PRES   REMARKS
LEXINGTON      SUNNY     75  52  44 NE10G18   30.20R
COVINGTON      PTSUNNY   71  57  61 NW8       30.20S
FRANKFORT      SUNNY     74  54  49 E8        30.20R
$$

KYZ054-064>069-076>088-106>120-271700-
SOUTHEAST KENTUCKY

CITY           SKY/WX    TMP DP  RH WIND       PRES   REMARKS
JACKSON        MOSUNNY   69  53  56 VRB5      30.20S
LONDON         SUNNY     74  52  46 VRB7      30.18S
SOMERSET       SUNNY     72  52  49 NE10G24   30.18S
MIDDLESBORO    MOSUNNY   72  58  62 CALM      30.16F
MONTICELLO     SUNNY     74  58  57 NE12      30.19F
$$




USA.gov is the U.S. government's official web portal to all federal, state and local government web resources and services.